Current Version              Previous Version:    01  02  03  04  05  06  07  08  09  10  11  12  13  14  15  16  17  18  19  20  21  22  23  24  25  26  27  28  29  30  
   31  32  33  34  35  36  37  38  39  40  41  42  43  44  45  46  47  48  49  50  51  52  53  54  55  56  57  58  59  60  

[Printable]
772
ASUS44 KFWD 230815
RWRTX
NORTH TEXAS HOURLY WEATHER ROUNDUP
NATIONAL WEATHER SERVICE FORT WORTH TX
300 AM CDT WED APR 23 2014

NOTE: "FAIR" INDICATES FEW OR NO CLOUDS BELOW 12,000 FEET WITH NO
SIGNIFICANT WEATHER AND/OR OBSTRUCTIONS TO VISIBILITY.

TXZ118-119-230900-
DALLAS/FORT WORTH METROPLEX

CITY           SKY/WX    TMP DP  RH WIND       PRES   REMARKS
DFW AIRPORT    CLEAR     67  56  67 CALM      29.92F
DALLAS LOVE    CLEAR     65  56  72 SE3       29.92F
FTW MEACHAM    CLEAR     64  57  78 CALM      29.92F
DAL-EXECUTIVE  CLEAR     61  57  87 CALM      29.92F
FTW-ALLIANCE   PTCLDY    62  56  80 CALM      29.92F
FTW-NAS-JRB    CLEAR     65  58  78 CALM      29.96F
FTW-SPINKS     CLEAR     57  55  91 CALM      29.94F FOG
ARLINGTON      CLEAR     56  55  97 CALM      29.92F
GRAND PRAIRIE  CLEAR     64  55  72 CALM      29.95F
ADDISON        CLEAR     66  55  67 CALM      29.94F
MESQUITE       CLEAR     58  56  92 CALM      29.93F
LANCASTER      CLEAR     58  56  91 CALM      29.94F
$$

TXZ091>094-102>105-117-120-121-131>134-230900-
NORTH CENTRAL TEXAS

CITY           SKY/WX    TMP DP  RH WIND       PRES   REMARKS
SHRMAN/DENISON CLEAR     64  46  50 E6        29.94F
GAINESVILLE    CLEAR     58  51  79 CALM      29.95S
BOWIE          CLEAR     56  53  90 SE3       29.93F
BRIDGEPORT     CLEAR     56  55  97 CALM      29.94F
DECATUR        CLEAR     64  54  70 SE5       29.94S
DENTON         CLEAR     57  55  93 CALM      29.93F
MCKINNEY       CLEAR     56  55  97 CALM      29.93F
GREENVILLE     CLEAR     55  54  94 CALM      29.93F
ROCKWALL       CLEAR     63  53  71 E5        29.92F
TERRELL        CLEAR     59  58  96 CALM      29.93F
WAXAHACHIE     CLEAR     60  57  91 CALM      29.94F
CLEBURNE       CLEAR     63  59  88 CALM      29.96S
GRANBURY       CLEAR     61  56  85 CALM      29.95S
$$

TXZ083>090-098>101-113>116-127>130-139>142-154-155-230900-
WESTERN NORTH TEXAS

CITY           SKY/WX    TMP DP  RH WIND       PRES   REMARKS
WICHITA FALLS  CLEAR     60  54  80 S10       29.89F
WF-KICKAPOO    CLEAR     60  54  79 SE7       29.91F
VERNON         CLEAR     62  54  73 SE9       29.90F
ABILENE        CLEAR     65  51  60 S13       29.91F
ABILENE-DYESS  CLEAR     65  51  60 SE15      29.91F
BRECKENRIDGE   CLEAR     64  53  67 SE9       29.92F
GRAHAM         CLEAR     61  53  74 SE6       29.91F
MINERAL WELLS  CLEAR     60  55  83 SE7       29.92F
STEPHENVILLE   CLEAR     60  53  77 CALM      29.97F
COMANCHE       CLEAR     61  55  78 SE6       29.94F
BROWNWOOD      CLEAR     55  50  82 CALM      29.95S
COLEMAN        CLEAR     61  53  74 S6        29.94F
BRADY          CLEAR     61  52  72 SE3       29.94F
$$

TXZ143>147-156>162-174-175-230900-
CENTRAL TEXAS

CITY           SKY/WX    TMP DP  RH WIND       PRES   REMARKS
WACO           CLEAR     60  56  86 CALM      29.93F
WACO-MCGREGOR  CLEAR     57  52  82 SW3       29.95S
HILLSBORO      CLEAR     65  55  69 E8        29.93F
CORSICANA      CLEAR     61  57  87 SE5       29.94F
MEXIA          CLEAR     64  58  81 CALM      29.92F
HEARNE         CLEAR     59  57  92 CALM      29.93F
CAMERON        CLEAR     62  59  89 CALM      29.92F
TEMPLE         CLEAR     63  54  72 CALM      29.97S
KILLEEN        CLEAR     66  57  72 E7        29.93F
KILLEEN-SKYLRK CLEAR     61  54  77 SE3       29.92S
FORT HOOD      CLEAR     63  57  81 CALM      29.93F
GATESVILLE     CLEAR     63  57  82 CALM      29.95F
HAMILTON       CLEAR     61  55  78 SE8       29.95F
LAMPASAS       CLEAR     60  57  88 CALM      29.94S
$$

TXZ095>097-106>112-122>126-135>138-148>153-164>167-230900-
EAST TEXAS

CITY           SKY/WX    TMP DP  RH WIND       PRES   REMARKS
PARIS          CLEAR     57  48  72 E7        29.94S
SULPHUR SPRNGS CLEAR     59  57  91 CALM      29.95F
CLARKSVILLE    CLEAR     60  50  69 CALM      29.93F
MOUNT PLEASANT CLEAR     56  56  99 CALM      29.95S
GILMER         CLEAR     59  57  94 CALM      29.95S FOG
MINEOLA        CLEAR     57  57 100 CALM      29.94F FOG
TYLER          CLEAR     62  57  83 CALM      29.93F
LONGVIEW       CLEAR     60  57  89 CALM      29.93F
MARSHALL       CLEAR     58  56  92 CALM      29.95F
ATHENS         CLEAR     55  54  94 CALM      29.93F
PALESTINE      CLEAR     57  54  88 CALM      29.95F
JACKSONVILLE   CLEAR     65  56  74 S3        29.96S
HENDERSON      CLEAR     57  55  94 CALM      29.94F
NACOGDOCHES    CLEAR     55  52  88 CALM      29.94F
LUFKIN         CLEAR     61  57  87 CALM      29.94F
$$

SUPPLEMENTAL OBSERVATIONS (CENTRAL)

CITY           SKY/WX    TMP DP  RH WIND       PRES   REMARKS
LAKE TEXOMA      N/A     55  54  94 E5          N/A
CADDO GRASSLND   N/A     54  52  94 S1          N/A
PAT MAYSE LAKE   N/A     59  50  72 NE1         N/A
GREENVILLE       N/A     57  54  88 CALM        N/A
CEDAR HILL       N/A     64  55  72 SE5         N/A
PALESTINE        N/A     57  55  94 CALM        N/A
MCGREGOR         N/A     66  57  72 SE7         N/A
TEMPLE           N/A     64  59  82 NE5         N/A
$$

SUPPLEMENTAL OBSERVATIONS (WEST)

CITY           SKY/WX    TMP DP  RH WIND       PRES   REMARKS
MILLERS CREEK    N/A     63  50  63 SE8         N/A
POSSUM KINGDOM   N/A     63  54  72 SE3         N/A
LBJ GRASSLAND    N/A     64  54  68 SE6         N/A
GRANBURY         N/A     61  57  88 CALM        N/A
HAMBY            N/A     64  50  59 SE9G17      N/A
IVIE RESERVOIR   N/A     61  50  67 E5          N/A
COLORADO BEND    N/A     63  55  77 SE3         N/A
$$

SUPPLEMENTAL OBSERVATIONS (EAST)

CITY           SKY/WX    TMP DP  RH WIND       PRES   REMARKS
CLARKSVILLE      N/A     61  46  59 NE1         N/A
CADDO LAKE       N/A     55  54  94 CALM        N/A
GILMER           N/A     57  55  94 CALM        N/A
HENDERSON        N/A     57  55  94 CALM        N/A
N SABINE NF      N/A     57  55  94 MISG        N/A
S SABINE NF      N/A     59  57  94 CALM        N/A
$$

SUPPLEMENTAL OBSERVATIONS ARE A COLLECTION OF AUTOMATED INSTRUMENTS
THAT ARE MAINTAINED BY A VARIETY OF FEDERAL AND STATE AGENCIES.
CERTAIN ELEMENTS...SUCH AS HUMIDITY VALUES AND SUSTAINED WIND
SPEEDS...MAY BE APPROXIMATED.